Weather History for Port Angeles, WA

Change the Weather History Date:

Monday, July 8, 2013

  Actual Average Record
Temperature  
Mean Temperature 60 °F -  
Max Temperature 68 °F 66 °F 87 °F (2010)
Min Temperature 53 °F 50 °F 42 °F (1987)
Degree Days  
Heating Degree Days 4    
Growing Degree Days 10 (Base 50)    
Moisture  
Dew Point 53 °F    
Average Humidity 87    
Maximum Humidity 100    
Minimum Humidity 63    
Precipitation  
Precipitation 0.00 in - - ()
Sea Level Pressure  
Sea Level Pressure 30.05 in    
Wind  
Wind Speed 6 mph (WNW)    
Max Wind Speed 10 mph    
Max Gust Speed -    
Visibility 7 miles    
Events      
Averages and records for this station are not official NWS values.
T = Trace of Precipitation, MM = Missing Value Source: NWS Daily Summary

Daily Weather History Graph

Daily Weather History Graph

Search for Another Location

Airport:

Trip Planner

Search our weather history database for the weather conditions in past years. The results will help you decide how hot, cold, wet, or windy it might be!

Date:

Astronomy

Jul. 08, 2013 Rise Set
Actual Time 5:23 AM PDT 9:14 PM PDT
Civil Twilight 4:43 AM PDT 9:54 PM PDT
Nautical Twilight 3:47 AM PDT 10:49 PM PDT
Astronomical Twilight 2:23 AM PDT 12:12 AM PDT
Moon 6:05 AM PDT (7/8) 9:10 PM PDT (7/8)
Length of Visible Light 17h 11m
Length of Day
15h 51m
New Moon, 0% of the Moon is Illuminated
Jul 8
New Moon
Jul 15
First Quarter
Jul 22
Full
Jul 29
Last Quarter
Aug 6
New

Hourly Weather History & Observations

Time (PDT) Temp. Dew Point Humidity Pressure Visibility Wind Dir Wind Speed Gust Speed Precip Events Conditions
12:29 AM 54.0 °F 52.0 °F 93% 29.96 in 10.0 mi WNW 6.9 mph - N/A   Partly Cloudy
12:53 AM 54.0 °F 52.0 °F 93% 29.97 in 10.0 mi WNW 8.1 mph - N/A   Partly Cloudy
1:31 AM 54.0 °F 52.0 °F 93% 29.97 in 9.0 mi WNW 8.1 mph - N/A   Mostly Cloudy
1:53 AM 54.0 °F 52.0 °F 93% 29.98 in 8.0 mi WNW 9.2 mph - N/A   Overcast
2:53 AM 53.1 °F 52.0 °F 96% 29.99 in 3.0 mi West 10.4 mph - N/A   Overcast
3:01 AM 53.1 °F 52.0 °F 96% 29.98 in 2.5 mi WNW 6.9 mph - N/A   Overcast
3:11 AM 53.1 °F 52.0 °F 96% 29.99 in 4.0 mi WNW 6.9 mph - N/A   Overcast
3:53 AM 53.1 °F 52.0 °F 96% 30.00 in 3.0 mi West 6.9 mph - N/A   Overcast
4:53 AM 53.1 °F 52.0 °F 96% 30.01 in 8.0 mi WNW 4.6 mph - N/A   Overcast
5:50 AM 53.6 °F 51.8 °F 94% 30.02 in 1.8 mi WNW 3.5 mph - N/A   Overcast
5:53 AM 53.1 °F 52.0 °F 96% 30.02 in 1.5 mi West 3.5 mph - N/A   Overcast
6:10 AM 53.1 °F 52.0 °F 96% 30.02 in 0.8 mi WSW 4.6 mph - N/A   Overcast
6:23 AM 53.1 °F 53.1 °F 100% 30.03 in 1.0 mi WSW 4.6 mph - N/A   Overcast
6:40 AM 54.0 °F 53.1 °F 97% 30.03 in 3.0 mi Variable 3.5 mph - N/A   Overcast
6:53 AM 54.0 °F 53.1 °F 97% 30.04 in 6.0 mi West 5.8 mph - N/A   Overcast
7:53 AM 55.9 °F 53.1 °F 90% 30.05 in 10.0 mi Calm Calm - N/A   Mostly Cloudy
8:06 AM 57.0 °F 54.0 °F 89% 30.05 in 10.0 mi WNW 3.5 mph - N/A   Scattered Clouds
8:53 AM 57.0 °F 53.1 °F 87% 30.06 in 10.0 mi NW 4.6 mph - N/A   Scattered Clouds
9:53 AM 60.1 °F 53.1 °F 78% 30.08 in 10.0 mi Variable 4.6 mph - N/A   Clear
10:53 AM 57.9 °F 52.0 °F 81% 30.09 in 10.0 mi North 6.9 mph - N/A   Clear
11:53 AM 61.0 °F 53.1 °F 75% 30.10 in 10.0 mi Variable 6.9 mph - N/A   Clear
12:53 PM 61.0 °F 53.1 °F 75% 30.11 in 10.0 mi North 8.1 mph - N/A   Clear
1:53 PM 62.1 °F 53.1 °F 72% 30.10 in 10.0 mi North 5.8 mph - N/A   Clear
2:53 PM 64.0 °F 54.0 °F 70% 30.10 in 10.0 mi North 6.9 mph - N/A   Clear
3:53 PM 68.0 °F 55.0 °F 63% 30.09 in 10.0 mi North 4.6 mph - N/A   Clear
4:53 PM 66.0 °F 54.0 °F 65% 30.09 in 10.0 mi WNW 8.1 mph - N/A   Clear
5:53 PM 64.9 °F 55.0 °F 70% 30.09 in 10.0 mi NNW 5.8 mph - N/A   Clear
6:53 PM 64.0 °F 55.0 °F 73% 30.08 in 10.0 mi NW 6.9 mph - N/A   Clear
7:53 PM 61.0 °F 54.0 °F 78% 30.09 in 10.0 mi North - - N/A   Clear
8:53 PM 57.9 °F 53.1 °F 84% 30.09 in 10.0 mi North - - N/A   Clear
9:53 PM 54.0 °F 52.0 °F 93% 30.09 in 10.0 mi North - - N/A   Clear
10:53 PM 53.1 °F 51.1 °F 93% 30.10 in 7.0 mi North - - N/A   Clear
11:07 PM 53.1 °F 51.1 °F 93% 30.10 in 6.0 mi North - - N/A   Scattered Clouds
11:36 PM 53.1 °F 51.1 °F 93% 30.10 in 6.0 mi North - - N/A   Mostly Cloudy
11:53 PM 53.1 °F 52.0 °F 96% 30.11 in 2.0 mi North - - N/A   Overcast